Time,TemperatureF,DewpointF,PressureIn,WindDirection,WindDirectionDegrees,WindSpeedMPH,WindSpeedGustMPH,Humidity,HourlyPrecipIn,Conditions,Clouds,dailyrainin,SoftwareType,DateUTC
2013-07-15 00:02:00,75.0,-99.9,-100.00,NE,50,2.0,3.0,-999,0.00,,,0.00,,2013-07-15 05:02:00,
2013-07-15 00:12:00,74.0,-99.9,-100.00,NE,47,1.0,2.0,-999,0.00,,,0.00,,2013-07-15 05:12:00,
2013-07-15 00:22:00,74.0,-99.9,-100.00,NE,47,1.0,2.0,-999,0.00,,,0.00,,2013-07-15 05:22:00,
2013-07-15 00:32:00,74.0,-99.9,-100.00,NE,47,1.0,2.0,-999,0.00,,,0.00,,2013-07-15 05:32:00,
2013-07-15 00:43:00,72.0,-99.9,-100.00,NE,49,1.0,2.0,-999,0.00,,,0.00,,2013-07-15 05:43:00,
2013-07-15 00:53:00,72.0,-99.9,-100.00,NE,49,1.0,2.0,-999,0.00,,,0.00,,2013-07-15 05:53:00,
2013-07-15 01:02:00,72.0,-99.9,-100.00,NE,49,1.0,2.0,-999,0.00,,,0.00,,2013-07-15 06:02:00,
2013-07-15 01:12:00,72.0,-99.9,-100.00,NNE,20,0.0,1.0,-999,0.00,,,0.00,,2013-07-15 06:12:00,
2013-07-15 01:22:00,72.0,-99.9,-100.00,NNE,20,0.0,1.0,-999,0.00,,,0.00,,2013-07-15 06:22:00,
2013-07-15 01:32:00,72.0,-99.9,-100.00,NNE,20,0.0,1.0,-999,0.00,,,0.00,,2013-07-15 06:32:00,
2013-07-15 01:42:00,73.0,-99.9,-100.00,North,353,1.0,3.0,-999,0.00,,,0.00,,2013-07-15 06:42:00,
2013-07-15 01:53:00,73.0,-99.9,-100.00,North,353,1.0,3.0,-999,0.00,,,0.00,,2013-07-15 06:53:00,
2013-07-15 02:02:00,73.0,-99.9,-100.00,North,353,1.0,3.0,-999,0.00,,,0.00,,2013-07-15 07:02:00,
2013-07-15 02:11:00,72.0,-99.9,-100.00,North,352,0.0,2.0,-999,0.00,,,0.00,,2013-07-15 07:11:00,
2013-07-15 02:22:00,72.0,-99.9,-100.00,North,352,0.0,2.0,-999,0.00,,,0.00,,2013-07-15 07:22:00,
2013-07-15 02:33:00,72.0,-99.9,-100.00,North,352,0.0,2.0,-999,0.00,,,0.00,,2013-07-15 07:33:00,
2013-07-15 02:44:00,71.0,-99.9,-100.00,ENE,62,0.0,0.0,-999,0.00,,,0.00,,2013-07-15 07:44:00,
2013-07-15 02:53:00,71.0,-99.9,-100.00,ENE,62,0.0,0.0,-999,0.00,,,0.00,,2013-07-15 07:53:00,
2013-07-15 03:02:00,71.0,-99.9,-100.00,ENE,62,0.0,0.0,-999,0.00,,,0.00,,2013-07-15 08:02:00,
2013-07-15 03:12:00,71.0,-99.9,-100.00,NE,51,0.0,1.0,-999,0.00,,,0.00,,2013-07-15 08:12:00,
2013-07-15 03:22:00,71.0,-99.9,-100.00,NE,51,0.0,1.0,-999,0.00,,,0.00,,2013-07-15 08:22:00,
2013-07-15 03:32:00,71.0,-99.9,-100.00,NE,51,0.0,1.0,-999,0.00,,,0.00,,2013-07-15 08:32:00,
2013-07-15 03:44:00,70.0,-99.9,-100.00,NE,38,0.0,0.0,-999,0.00,,,0.00,,2013-07-15 08:44:00,
2013-07-15 03:53:00,70.0,-99.9,-100.00,NE,38,0.0,0.0,-999,0.00,,,0.00,,2013-07-15 08:53:00,
2013-07-15 04:02:00,70.0,-99.9,-100.00,NE,38,0.0,0.0,-999,0.00,,,0.00,,2013-07-15 09:02:00,
2013-07-15 04:10:00,70.0,-99.9,-100.00,NNE,26,0.0,0.0,-999,0.00,,,0.00,,2013-07-15 09:10:00,
2013-07-15 04:12:00,70.0,-99.9,-100.00,NNE,12,1.0,1.0,-999,0.00,,,-99.99,,2013-07-15 09:12:00,
2013-07-15 04:22:00,70.0,-99.9,-100.00,NNE,12,1.0,1.0,-999,0.00,,,-99.99,,2013-07-15 09:22:00,
2013-07-15 04:32:00,70.0,-99.9,-100.00,NNE,12,1.0,1.0,-999,0.00,,,-99.99,,2013-07-15 09:32:00,
2013-07-15 04:43:00,70.0,-99.9,-100.00,NNE,26,0.0,0.0,-999,0.00,,,0.00,,2013-07-15 09:43:00,
2013-07-15 04:53:00,70.0,-99.9,-100.00,NNE,26,0.0,0.0,-999,0.00,,,0.00,,2013-07-15 09:53:00,
2013-07-15 05:02:00,70.0,-99.9,-100.00,NNE,26,0.0,0.0,-999,0.00,,,0.00,,2013-07-15 10:02:00,
2013-07-15 05:10:00,70.0,-99.9,-100.00,NNW,334,1.0,2.0,-999,0.00,,,0.00,,2013-07-15 10:10:00,
2013-07-15 05:43:00,70.0,-99.9,-100.00,NNW,334,1.0,2.0,-999,0.00,,,0.00,,2013-07-15 10:43:00,
2013-07-15 05:53:00,70.0,-99.9,-100.00,NNW,334,1.0,2.0,-999,0.00,,,0.00,,2013-07-15 10:53:00,
2013-07-15 06:02:00,70.0,-99.9,-100.00,NNW,334,1.0,2.0,-999,0.00,,,0.00,,2013-07-15 11:02:00,
2013-07-15 06:10:00,70.0,-99.9,-100.00,NE,35,0.0,0.0,-999,0.00,,,0.00,,2013-07-15 11:10:00,
2013-07-15 06:43:00,70.0,-99.9,-100.00,NE,35,0.0,0.0,-999,0.00,,,0.00,,2013-07-15 11:43:00,
2013-07-15 06:52:00,70.0,-99.9,-100.00,NE,35,0.0,0.0,-999,0.00,,,0.00,,2013-07-15 11:52:00,
2013-07-15 07:01:00,70.0,-99.9,-100.00,NE,35,0.0,0.0,-999,0.00,,,0.00,,2013-07-15 12:01:00,
2013-07-15 07:43:00,75.0,-99.9,-100.00,East,100,2.0,3.0,-999,0.00,,,0.00,,2013-07-15 12:43:00,
2013-07-15 07:53:00,75.0,-99.9,-100.00,East,100,2.0,3.0,-999,0.00,,,0.00,,2013-07-15 12:53:00,
2013-07-15 08:02:00,75.0,-99.9,-100.00,East,100,2.0,3.0,-999,0.00,,,0.00,,2013-07-15 13:02:00,
2013-07-15 08:10:00,78.0,-99.9,-100.00,ESE,109,4.0,6.0,-999,0.00,,,0.00,,2013-07-15 13:10:00,
2013-07-15 08:11:00,77.0,-99.9,-100.00,ESE,115,2.0,4.0,-999,0.00,,,0.00,,2013-07-15 13:11:00,
2013-07-15 08:22:00,77.0,-99.9,-100.00,ESE,115,2.0,4.0,-999,0.00,,,0.00,,2013-07-15 13:22:00,
2013-07-15 08:33:00,77.0,-99.9,-100.00,ESE,115,2.0,4.0,-999,0.00,,,0.00,,2013-07-15 13:33:00,
2013-07-15 08:43:00,78.0,-99.9,-100.00,ESE,109,4.0,6.0,-999,0.00,,,0.00,,2013-07-15 13:43:00,
2013-07-15 08:53:00,78.0,-99.9,-100.00,ESE,109,4.0,6.0,-999,0.00,,,0.00,,2013-07-15 13:53:00,
2013-07-15 09:02:00,78.0,-99.9,-100.00,ESE,109,4.0,6.0,-999,0.00,,,0.00,,2013-07-15 14:02:00,
2013-07-15 09:43:00,82.0,-99.9,-100.00,East,101,3.0,5.0,-999,0.00,,,0.00,,2013-07-15 14:43:00,
2013-07-15 10:03:00,82.0,-99.9,-100.00,East,101,3.0,5.0,-999,0.00,,,0.00,,2013-07-15 15:03:00,
2013-07-15 10:10:00,83.0,-99.9,-100.00,SE,132,4.0,7.0,-999,0.00,,,0.00,,2013-07-15 15:10:00,
2013-07-15 10:20:00,81.0,-99.9,-100.00,SE,138,3.0,5.0,-999,0.00,,,0.00,,2013-07-15 15:20:00,
2013-07-15 10:30:00,81.0,-99.9,-100.00,SE,138,3.0,5.0,-999,0.00,,,0.00,,2013-07-15 15:30:00,
2013-07-15 10:51:00,83.0,-99.9,-100.00,SE,132,4.0,7.0,-999,0.00,,,0.00,,2013-07-15 15:51:00,
2013-07-15 11:08:00,83.0,-99.9,-100.00,SE,132,4.0,7.0,-999,0.00,,,0.00,,2013-07-15 16:08:00,
2013-07-15 11:51:00,84.0,-99.9,-100.00,SSW,193,3.0,5.0,-999,0.00,,,0.00,,2013-07-15 16:51:00,
2013-07-15 12:09:00,84.0,-99.9,-100.00,SSW,193,3.0,5.0,-999,0.00,,,0.00,,2013-07-15 17:09:00,
2013-07-15 12:23:00,87.0,-99.9,-100.00,South,176,3.0,4.0,-999,0.00,,,0.00,,2013-07-15 17:23:00,
2013-07-15 12:37:00,87.0,-99.9,-100.00,South,176,3.0,4.0,-999,0.00,,,0.00,,2013-07-15 17:37:00,
2013-07-15 12:52:00,87.0,-99.9,-100.00,SSE,166,5.0,9.0,-999,0.00,,,0.00,,2013-07-15 17:52:00,
2013-07-15 13:01:00,87.0,-99.9,-100.00,SSE,166,5.0,9.0,-999,0.00,,,0.00,,2013-07-15 18:01:00,
2013-07-15 13:09:00,87.0,-99.9,-100.00,SSE,166,5.0,9.0,-999,0.00,,,0.00,,2013-07-15 18:09:00,
2013-07-15 13:29:00,87.0,-99.9,-100.00,SSE,152,5.0,8.0,-999,0.00,,,0.00,,2013-07-15 18:29:00,
2013-07-15 13:45:00,88.0,-99.9,-100.00,SSW,197,3.0,4.0,-999,0.00,,,0.00,,2013-07-15 18:45:00,
2013-07-15 13:59:00,88.0,-99.9,-100.00,SSW,197,3.0,4.0,-999,0.00,,,0.00,,2013-07-15 18:59:00,
2013-07-15 14:05:00,88.0,-99.9,-100.00,SSW,197,3.0,4.0,-999,0.00,,,0.00,,2013-07-15 19:05:00,
2013-07-15 14:12:00,88.0,-99.9,-100.00,SE,145,5.0,8.0,-999,0.00,,,0.00,,2013-07-15 19:12:00,
2013-07-15 14:24:00,88.0,-99.9,-100.00,SE,145,5.0,8.0,-999,0.00,,,0.00,,2013-07-15 19:24:00,
2013-07-15 14:50:00,89.0,-99.9,-100.00,SE,138,6.0,9.0,-999,0.00,,,0.00,,2013-07-15 19:50:00,
2013-07-15 14:57:00,89.0,-99.9,-100.00,SE,138,6.0,9.0,-999,0.00,,,0.00,,2013-07-15 19:57:00,
2013-07-15 15:07:00,89.0,-99.9,-100.00,SE,138,6.0,9.0,-999,0.00,,,0.00,,2013-07-15 20:07:00,
2013-07-15 15:19:00,88.0,-99.9,-100.00,ESE,120,4.0,7.0,-999,0.00,,,0.00,,2013-07-15 20:19:00,
2013-07-15 15:29:00,88.0,-99.9,-100.00,ESE,120,4.0,7.0,-999,0.00,,,0.00,,2013-07-15 20:29:00,
2013-07-15 15:37:00,88.0,-99.9,-100.00,ESE,120,4.0,7.0,-999,0.00,,,0.00,,2013-07-15 20:37:00,
2013-07-15 15:43:00,89.0,-99.9,-100.00,SSE,148,5.0,7.0,-999,0.00,,,0.00,,2013-07-15 20:43:00,
2013-07-15 16:01:00,89.0,-99.9,-100.00,SSE,148,5.0,7.0,-999,0.00,,,0.00,,2013-07-15 21:01:00,
2013-07-15 16:48:00,90.0,-99.9,-100.00,SE,131,7.0,10.0,-999,0.00,,,0.00,,2013-07-15 21:48:00,
2013-07-15 17:02:00,90.0,-99.9,-100.00,SE,131,7.0,10.0,-999,0.00,,,0.00,,2013-07-15 22:02:00,
2013-07-15 17:22:00,90.0,-99.9,-100.00,SSE,147,6.0,8.0,-999,0.00,,,0.00,,2013-07-15 22:22:00,
2013-07-15 17:36:00,90.0,-99.9,-100.00,SSE,147,6.0,8.0,-999,0.00,,,0.00,,2013-07-15 22:36:00,
2013-07-15 17:40:00,90.0,-99.9,-100.00,SE,142,6.0,9.0,-999,0.00,,,0.00,,2013-07-15 22:40:00,
2013-07-15 17:44:00,90.0,-99.9,-100.00,SE,145,4.0,7.0,-999,0.00,,,0.00,,2013-07-15 22:44:00,
2013-07-15 17:55:00,90.0,-99.9,-100.00,SE,145,4.0,7.0,-999,0.00,,,0.00,,2013-07-15 22:55:00,
2013-07-15 18:08:00,90.0,-99.9,-100.00,SE,145,4.0,7.0,-999,0.00,,,0.00,,2013-07-15 23:08:00,
2013-07-15 18:13:00,90.0,-99.9,-100.00,SE,142,6.0,9.0,-999,0.00,,,0.00,,2013-07-15 23:13:00,
2013-07-15 18:31:00,90.0,-99.9,-100.00,SE,142,6.0,9.0,-999,0.00,,,0.00,,2013-07-15 23:31:00,
2013-07-15 18:40:00,90.0,-99.9,-100.00,SE,131,6.0,7.0,-999,0.00,,,0.00,,2013-07-15 23:40:00,
2013-07-15 18:50:00,90.0,-99.9,-100.00,ESE,120,4.0,6.0,-999,0.00,,,0.00,,2013-07-15 23:50:00,
2013-07-15 19:03:00,90.0,-99.9,-100.00,ESE,120,4.0,6.0,-999,0.00,,,0.00,,2013-07-16 00:03:00,
2013-07-15 19:16:00,90.0,-99.9,-100.00,SE,131,6.0,7.0,-999,0.00,,,0.00,,2013-07-16 00:16:00,
2013-07-15 19:29:00,90.0,-99.9,-100.00,SE,131,6.0,7.0,-999,0.00,,,0.00,,2013-07-16 00:29:00,
2013-07-15 19:34:00,90.0,-99.9,-100.00,SE,131,6.0,7.0,-999,0.00,,,0.00,,2013-07-16 00:34:00,
2013-07-15 20:18:00,88.0,-99.9,-100.00,SE,131,4.0,6.0,-999,0.00,,,0.00,,2013-07-16 01:18:00,
2013-07-15 20:29:00,88.0,-99.9,-100.00,SE,131,4.0,6.0,-999,0.00,,,0.00,,2013-07-16 01:29:00,
2013-07-15 20:39:00,88.0,-99.9,-100.00,SE,131,4.0,6.0,-999,0.00,,,0.00,,2013-07-16 01:39:00,
2013-07-15 20:49:00,86.0,-99.9,-100.00,ESE,111,5.0,7.0,-999,0.00,,,0.00,,2013-07-16 01:49:00,
2013-07-15 21:02:00,86.0,-99.9,-100.00,ESE,111,5.0,7.0,-999,0.00,,,0.00,,2013-07-16 02:02:00,
2013-07-15 21:08:00,86.0,-99.9,-100.00,ESE,111,5.0,7.0,-999,0.00,,,0.00,,2013-07-16 02:08:00,
2013-07-15 21:10:00,83.0,-99.9,-100.00,ESE,121,4.0,5.0,-999,0.00,,,0.00,,2013-07-16 02:10:00,
2013-07-15 21:30:00,84.0,-99.9,-100.00,East,89,4.0,6.0,-999,0.00,,,0.00,,2013-07-16 02:30:00,
2013-07-15 21:35:00,84.0,-99.9,-100.00,East,89,4.0,6.0,-999,0.00,,,0.00,,2013-07-16 02:35:00,
2013-07-15 21:40:00,83.0,-99.9,-100.00,ESE,111,4.0,5.0,-999,0.00,,,0.00,,2013-07-16 02:40:00,
2013-07-15 21:54:00,83.0,-99.9,-100.00,ESE,121,4.0,5.0,-999,0.00,,,0.00,,2013-07-16 02:54:00,
2013-07-15 22:17:00,83.0,-99.9,-100.00,ESE,111,4.0,5.0,-999,0.00,,,0.00,,2013-07-16 03:17:00,
2013-07-15 22:29:00,83.0,-99.9,-100.00,ESE,111,4.0,5.0,-999,0.00,,,0.00,,2013-07-16 03:29:00,
2013-07-15 22:49:00,82.0,-99.9,-100.00,ESE,123,4.0,6.0,-999,0.00,,,0.00,,2013-07-16 03:49:00,
2013-07-15 22:58:00,82.0,-99.9,-100.00,ESE,123,4.0,6.0,-999,0.00,,,0.00,,2013-07-16 03:58:00,
2013-07-15 23:02:00,82.0,-99.9,-100.00,ESE,123,4.0,6.0,-999,0.00,,,0.00,,2013-07-16 04:02:00,
2013-07-15 23:12:00,83.0,-99.9,-100.00,SE,136,5.0,6.0,-999,0.00,,,0.00,,2013-07-16 04:12:00,
2013-07-15 23:22:00,83.0,-99.9,-100.00,SE,136,5.0,6.0,-999,0.00,,,0.00,,2013-07-16 04:22:00,
2013-07-15 23:32:00,83.0,-99.9,-100.00,SE,136,5.0,6.0,-999,0.00,,,0.00,,2013-07-16 04:32:00,
2013-07-15 23:43:00,82.0,-99.9,-100.00,SE,136,5.0,6.0,-999,0.00,,,0.00,,2013-07-16 04:43:00,
2013-07-15 23:53:00,82.0,-99.9,-100.00,SE,136,5.0,6.0,-999,0.00,,,0.00,,2013-07-16 04:53:00,